#timestamp,LO_Frequency,Hit,StdDev 
1512320415.6,286047004.3,N
1512320435.4,286047001.6,N
1512320455.3,286047001.4,N
1512320475.1,286047001.3,N
1512320495.8,286047011.9,N
1512320515.7,286047003.8,N
1512320535.5,286047005.2,N
1512320555.4,286047004.5,N
1512320575.2,286047005.6,N
1512320595.0,286047003.4,N
1512320595.9,286047003.4,N
1512320615.8,286047003.5,N
1512320635.6,286047004.1,N
1512320655.5,286047002.9,N
1512320675.3,286047005.4,N
1512320695.1,286047005.7,N
1512320715.9,286047007.1,Y
1512320735.7,286047002.1,P
1512320755.5,286047002.4,P
1512320775.4,286047000.3,N
1512320795.2,286046999.7,N
1512320815.1,286047001.0,N
1512320816.0,286047001.0,N
1512320835.8,286047000.1,N
1512320855.6,286047000.6,N
1512320875.5,286046998.7,N
1512320895.3,286046999.1,N
1512320915.1,286046999.1,N
1512320935.9,286047001.2,N
1512320955.7,286046999.5,N
1512320975.6,286046999.1,N
1512320995.4,286046998.8,N
1512321015.2,286047000.8,N
1512321035.1,286046998.9,N
1512321036.0,286046998.9,N
1512321055.8,286047001.1,N
1512321075.6,286046998.3,N
1512321095.5,286047002.6,N
1512321115.3,286047002.2,N
1512321135.2,286047000.5,N
1512321155.9,286047002.4,N
1512321175.7,286047000.2,N
1512321195.6,286047000.4,N
1512321215.4,286046999.9,N
1512321235.2,286047000.4,N
1512321255.1,286047000.7,N
1512321256.0,286047000.7,N
1512321275.8,286046998.7,N
1512321295.7,286047000.5,N
1512321315.5,286047000.3,N
1512321335.3,286047000.4,N
1512321355.2,286047002.7,N
1512321375.0,286047004.0,Y
1512321375.9,286047004.0,P
1512321395.8,286047004.4,N
1512321415.6,286047001.7,N
1512321435.4,286047004.4,N
1512321455.3,286047001.7,N
1512321475.1,286047001.4,N
1512321495.8,286047002.2,N
1512321515.7,286047002.6,N
1512321535.5,286047003.6,N
1512321555.4,286047002.4,N
1512321575.2,286047002.0,N
1512321595.0,286047001.5,N
1512321595.9,286047001.5,N
1512321615.8,286047002.0,N
1512321635.6,286047002.3,N
1512321655.5,286047002.8,N
1512321675.3,286047002.8,N
1512321695.1,286047002.5,N
1512321715.9,286047002.0,N
1512321735.7,286047001.9,N
1512321755.6,286047002.4,N
1512321775.4,286047001.9,N
1512321795.2,286047001.8,N
1512321815.1,286047002.3,N
1512321816.0,286047002.3,N
1512321835.8,286047001.8,N
1512321855.7,286047001.5,N
1512321875.5,286047004.3,Y
1512321895.3,286046998.1,P
1512321915.2,286046999.0,N
1512321935.0,286046998.8,N
1512321935.9,286046998.8,N
1512321955.7,286047000.8,N
1512321975.6,286047000.9,N
1512321995.4,286047002.8,N
1512322015.3,286047000.9,N
1512322035.1,286047001.0,N
1512322036.0,286047001.0,N
1512322055.8,286047000.2,N
1512322075.7,286047000.1,N
1512322095.5,286047000.6,N
1512322115.3,286047001.2,N
1512322135.2,286047001.0,N
1512322155.0,286047000.7,N
1512322155.9,286047000.7,N
1512322175.8,286047000.5,N
1512322195.6,286046999.4,N
1512322215.4,286046998.0,N
1512322235.3,286046999.5,N
1512322255.1,286046996.6,N
1512322275.8,286046997.2,N
1512322295.7,286046999.4,N
1512322315.5,286046999.5,N
1512322335.4,286046997.0,N
1512322355.2,286046998.9,N
1512322375.0,286046996.5,N
1512322375.9,286046996.5,N
1512322395.8,286046999.4,N
1512322415.6,286046999.5,N
1512322435.4,286046999.5,N
1512322455.3,286047000.9,N
1512322475.1,286046998.1,N
1512322495.9,286046996.9,N
1512322515.7,286046997.1,N
1512322535.5,286046999.0,N
1512322555.4,286046998.6,N
1512322575.2,286046998.7,N
1512322595.0,286046998.7,N
1512322595.9,286046998.7,N
1512322615.8,286047000.7,N
1512322635.6,286047001.0,N
1512322655.5,286047001.1,N
1512322675.3,286046999.3,N
1512322695.1,286046999.4,N
1512322715.9,286046999.3,N
1512322735.7,286047001.1,N
1512322755.6,286047001.2,N
1512322775.4,286046998.5,N
1512322795.2,286047001.1,N
1512322815.1,286047001.2,N
1512322816.0,286047001.2,N
1512322835.8,286047000.7,N
1512322855.6,286047002.3,N
1512322875.5,286047002.8,N
1512322895.3,286047000.2,N
1512322915.2,286047001.5,N
1512322935.9,286047002.6,N
1512322955.7,286047002.7,N
1512322975.6,286047004.4,N
1512322995.4,286047002.3,N
1512323015.2,286047000.1,N
1512323035.1,286047000.8,N
1512323036.0,286047000.8,N
1512323055.8,286046999.9,N
1512323075.7,286047000.2,N
1512323095.5,286046999.8,N
1512323115.3,286047002.8,N
1512323135.2,286047000.3,N
1512323155.9,286047002.7,N
1512323175.7,286047000.4,N
1512323195.6,286047002.1,N
1512323215.4,286047001.9,N
1512323235.3,286047002.7,N
1512323255.1,286047002.1,N
1512323256.0,286047002.1,N
1512323275.8,286047001.7,N
1512323295.7,286047002.5,N
1512323315.5,286047004.2,Y
1512323335.3,286047002.0,P
1512323355.2,286047002.7,P
1512323375.0,286047000.5,N
1512323375.9,286047000.5,N
1512323395.8,286047002.8,Y
1512323415.6,286046998.4,P
1512323435.4,286046998.8,N
1512323455.3,286046999.2,N
1512323475.1,286046998.9,N
1512323495.9,286046996.9,N
1512323515.7,286046997.2,N
1512323535.5,286046999.3,N
1512323555.4,286046996.7,N
1512323575.2,286046997.4,N
1512323595.0,286046999.5,N
1512323596.0,286046999.5,N
1512323615.8,286046997.0,N
1512323635.6,286046996.8,N
1512323655.5,286046997.3,N
1512323675.3,286046997.5,N
1512323695.1,286046997.2,N
1512323715.9,286046997.1,N
1512323735.7,286046999.1,N
1512323755.6,286046998.2,N
1512323775.4,286047000.9,N
1512323795.2,286047000.4,N
1512323815.1,286047000.9,N
1512323816.0,286047000.9,N
1512323835.8,286046999.9,N
1512323855.7,286047000.7,N
1512323875.5,286047000.4,N
1512323895.3,286046996.6,N
1512323915.2,286046996.7,N
1512323935.0,286046997.2,N
1512323935.9,286046997.2,N
1512323955.8,286046997.3,N
1512323975.6,286046997.5,N
1512323995.4,286046997.4,N
